Flag for Canada Weather past 2 weeks in Quispamsis, New Brunswick, Canada

Now
79 °F

Scattered clouds.


Feels Like: 81 °F
Forecast: N/A
Wind: 7 mph from South

Location: Saint John

Current Time: Sep 1, 2014 at 6:02:07 PM

Latest Report: Sep 1, 2014 at 5:00 PM


Visibility: 15 mi

Pressure: 29.95 "Hg

Humidity: 74%

Dew point: 70 °F

Location of QuispamsisLocation

Historic Weather in Quispamsis — Graph

°F

Quispamsis temperature yesterday

Maximum temperature yesterday: 63 °F (at 3:00 PM)
Minimum temperature yesterday: 57 °F (at 12:00 AM)
Average temperature yesterday: 59 °F

Past Weeks' High & Low Weather Summary

 TemperatureHumidityPressure
High81 °F (Aug 20, 3:00 PM)100% (Aug 17, 6:00 PM)30.30 "Hg (Aug 17, 6:00 PM)
Low37 °F (Aug 30, 5:00 AM)39% (Aug 28, 4:00 PM)29.65 "Hg (Aug 18, 4:00 PM)
Average62 °F85%30.00 "Hg
* Reported Aug 17 4:00 PM — Sep 1 4:00 PM, Quispamsis, Weather by CustomWeather, © 2014

Note: Actual official high and low records may vary slightly from our data, if they occured in-between our weather recording intervals... More about our weather records

Advertising

Quispamsis weather history for previous 24 hours

 ConditionsComfort  
Time TempWeatherWind HumidityBarometerVisibility
4:00 PM
Sep 1
75 °FScattered clouds.8 mph83%29.95 "Hg15 mi
3:00 PM77 °FBroken clouds.5 mph83%29.96 "Hg15 mi
2:00 PM77 °FPartly sunny.5 mph79%29.95 "Hg15 mi
1:00 PM77 °FPartly sunny.5 mph79%29.94 "Hg15 mi
12:00 PM70 °FFog.No wind100%29.96 "Hg6 mi
11:00 AM70 °FFog.2 mph100%29.95 "Hg2 mi
10:00 AM66 °FFog.No wind100%29.94 "Hg2 mi
9:00 AM63 °FFog.No wind100%29.95 "Hg1 mi
8:46 AM63 °FFog.2 mph100%29.95 "Hg1 mi
8:00 AM61 °FFog.No wind100%29.95 "Hg0 mi
7:00 AM61 °FFog.No wind100%29.95 "Hg1 mi
6:52 AM61 °FFog.3 mph100%29.94 "Hg1 mi
6:00 AM59 °FSprinkles. Fog.7 mph100%29.94 "Hg1 mi
5:00 AM61 °FSprinkles. Fog.6 mph100%29.92 "Hg1 mi
4:00 AM61 °FSprinkles. Fog.6 mph100%29.92 "Hg1 mi
3:00 AM59 °FSprinkles. Fog.No wind100%29.93 "Hg1 mi
2:00 AM59 °FFog.5 mph100%29.94 "Hg1 mi
1:00 AM59 °FFog.10 mph100%29.94 "Hg1 mi
12:00 AM59 °FFog.8 mph100%29.94 "Hg1 mi
11:53 PM
Aug 31
59 °FFog.9 mph100%29.94 "Hg1 mi
11:00 PM61 °FSprinkles. Fog.6 mph100%29.95 "Hg2 mi
10:00 PM59 °FSprinkles. Fog.8 mph100%29.96 "Hg1 mi
9:00 PM59 °FSprinkles. Fog.9 mph100%29.96 "Hg2 mi
8:00 PM61 °FSprinkles. Fog.9 mph100%29.96 "Hg15 mi
7:00 PM61 °FFog.8 mph100%29.96 "Hg1 mi
6:00 PM61 °FFog.9 mph100%29.95 "Hg2 mi
Weather by CustomWeather, © 2014

See weather overviewHow to use our weather pages